Location: Battery Park City
(40.7115°N, 74.0163°W)
Time: 19:45:21
(UTC+00:00)

SL-4 R/B - Pass Details

Date: 08 December 2019
Orbit: 428 x 667 km, 51.6° (Epoch: 18 January)

Event Time Altitude Azimuth Distance (km) Brightness Sun altitude
Rises 22:02:39 0° 260° (W) 2,472 7.2 -6.6°
Reaches altitude 10° 22:04:52 10° 271° (W) 1,633 5.6 -7.0°
Maximum altitude 22:08:12 32° 336° (NNW) 872 3.1 -7.6°
Drops below altitude 10° 22:11:48 10° 41° (NE) 1,758 4.0 -8.2°
Enters shadow 22:12:07 - 43° (NE) 1,876 4.2 -8.2°
